Location: Tel Aviv
(32.0670°N, 34.7670°E)
Time: 19:47:12
(UTC+03:00)

Transit 2A - Pass Details

Date: 04 June 2024
Orbit: 593 x 959 km, 66.7° (Epoch: 14 June)

Event Time Altitude Azimuth Distance (km) Brightness Sun altitude
Rises 20:16:41 0° 229° (SW) 2,897 9.2 -6.8°
Reaches altitude 10° 20:19:04 10° 239° (WSW) 2,034 8.6 -7.2°
Maximum altitude 20:23:10 32° 303° (WNW) 1,172 7.9 -8.0°
Drops below altitude 10° 20:27:39 10° 6° (N) 2,229 8.8 -8.8°
Sets 20:30:23 0° 16° (NNE) 3,223 9.5 -9.2°
